Location: Julian California
(33.0790°N, 116.6010°W)
Time: 14:55:27
(UTC-07:00)

Cosmos 1455 Rocket - Pass Details

Date: 19 May 2017
Orbit: 605 x 630 km, 82.5° (Epoch: 24 May)

Event Time Altitude Azimuth Distance (km) Brightness Sun altitude
Rises 21:17:53 0° 354° (N) 2,885 7.2 -17.8°
Reaches altitude 10° 21:20:07 10° 356° (N) 1,972 6.2 -18.2°
Maximum altitude 21:24:29 82° 84° (E) 619 2.9 -18.9°
Enters shadow 21:26:08 38° 168° (SSE) 938 3.6 -19.1°
